Weather History for KCIN - October, 2012

Change the Weather History Date:

Wednesday, October 17, 2012

  Actual Average Record
Temperature  
Mean Temperature 54 °F -  
Max Temperature 62 °F 62 °F 83 °F (1961)
Min Temperature 46 °F 37 °F 10 °F (1976)
Degree Days  
Heating Degree Days 11    
Growing Degree Days 4 (Base 50)    
Moisture  
Dew Point 41 °F    
Average Humidity 59    
Maximum Humidity 94    
Minimum Humidity 39    
Precipitation  
Precipitation 0.02 in - - ()
Sea Level Pressure  
Sea Level Pressure 29.42 in    
Wind  
Wind Speed 16 mph (West)    
Max Wind Speed 36 mph    
Max Gust Speed 46 mph    
Visibility 10 miles    
Events Rain    
Averages and records for this station are not official NWS values.
T = Trace of Precipitation, MM = Missing Value Source: NWS Daily Summary

Daily Weather History Graph

Daily Weather History Graph

Search for Another Location

Airport or City:

Trip Planner

Search our weather history database for the weather conditions in past years. The results will help you decide how hot, cold, wet, or windy it might be!

Date:

Astronomy

Oct. 17, 2012 Rise Set
Actual Time 7:34 AM CDT 6:33 PM CDT
Civil Twilight 7:06 AM CDT 7:01 PM CDT
Nautical Twilight 6:33 AM CDT 7:34 PM CDT
Astronomical Twilight 6:01 AM CDT 8:06 PM CDT
Moon 10:12 AM CDT (10/17) 8:07 PM CDT (10/17)
Length of Visible Light 11h 55m
Length of Day
10h 58m
Waxing Crescent, 7% of the Moon is Illuminated
Oct 17
Waxing Crescent
Oct 21
First Quarter
Oct 29
Full
Nov 6
Last Quarter
Nov 13
New

Hourly Weather History & Observations

Time (CDT) Temp. Windchill Dew Point Humidity Pressure Visibility Wind Dir Wind Speed Gust Speed Precip Events Conditions
12:15 AM 59.0 °F - 46.4 °F 63% 29.40 in 10.0 mi SSW 11.5 mph - N/A   Clear
12:35 AM 57.2 °F - 48.2 °F 72% 29.40 in 10.0 mi SSW 9.2 mph - N/A   Clear
12:55 AM 55.4 °F - 46.4 °F 72% 29.39 in 10.0 mi South 8.1 mph - N/A   Clear
1:15 AM 55.4 °F - 46.4 °F 72% 29.38 in 10.0 mi SSW 5.8 mph - N/A   Clear
1:35 AM 57.2 °F - 48.2 °F 72% 29.38 in 10.0 mi SSW 6.9 mph - N/A   Clear
1:55 AM 57.2 °F - 48.2 °F 72% 29.37 in 10.0 mi SSW 6.9 mph - N/A   Scattered Clouds
2:15 AM 59.0 °F - 48.2 °F 67% 29.38 in 10.0 mi SW 8.1 mph - N/A   Overcast
2:35 AM 59.0 °F - 48.2 °F 67% 29.36 in 10.0 mi South 9.2 mph - N/A   Overcast
2:55 AM 60.8 °F - 48.2 °F 63% 29.36 in 10.0 mi SSW 11.5 mph - N/A   Overcast
3:15 AM 60.8 °F - 48.2 °F 63% 29.35 in 10.0 mi South 11.5 mph - N/A   Overcast
3:35 AM 60.8 °F - 48.2 °F 63% 29.34 in 10.0 mi SSW 11.5 mph - N/A   Mostly Cloudy
3:55 AM 60.8 °F - 48.2 °F 63% 29.32 in 10.0 mi SSW 15.0 mph - N/A   Mostly Cloudy
4:15 AM 62.6 °F - 48.2 °F 59% 29.30 in 10.0 mi SSW 13.8 mph - N/A   Mostly Cloudy
4:35 AM 60.8 °F - 48.2 °F 63% 29.30 in 10.0 mi South 16.1 mph - N/A   Partly Cloudy
4:55 AM 60.8 °F - 50.0 °F 68% 29.30 in 10.0 mi South 18.4 mph 24.2 mph N/A   Scattered Clouds
5:15 AM 60.8 °F - 50.0 °F 68% 29.30 in 10.0 mi SSW 18.4 mph - N/A   Scattered Clouds
5:35 AM 60.8 °F - 50.0 °F 68% 29.31 in 10.0 mi SW 17.3 mph 25.3 mph N/A   Clear
5:55 AM 60.8 °F - 51.8 °F 72% 29.31 in 10.0 mi SW 16.1 mph - N/A   Partly Cloudy
6:15 AM 60.8 °F - 51.8 °F 72% 29.31 in 10.0 mi SW 16.1 mph - N/A   Scattered Clouds
6:35 AM 60.8 °F - 50.0 °F 68% 29.32 in 10.0 mi WSW 17.3 mph 24.2 mph N/A   Mostly Cloudy
6:55 AM 62.6 °F - 48.2 °F 59% 29.34 in 10.0 mi West 24.2 mph 29.9 mph N/A   Mostly Cloudy
7:15 AM 60.8 °F - 48.2 °F 63% 29.35 in 10.0 mi West 17.3 mph 26.5 mph N/A   Scattered Clouds
7:35 AM 60.8 °F - 50.0 °F 68% 29.35 in 10.0 mi West 17.3 mph 26.5 mph N/A   Clear
7:55 AM 59.0 °F - 50.0 °F 72% 29.35 in 10.0 mi West 17.3 mph - N/A   Scattered Clouds
8:15 AM 59.0 °F - 50.0 °F 72% 29.37 in 10.0 mi West 18.4 mph - N/A   Scattered Clouds
8:35 AM 60.8 °F - 48.2 °F 63% 29.38 in 10.0 mi WNW 20.7 mph 28.8 mph N/A   Mostly Cloudy
8:55 AM 57.2 °F - 48.2 °F 72% 29.39 in 10.0 mi West 25.3 mph - N/A Rain Light Rain
9:15 AM 53.6 °F - 50.0 °F 88% 29.41 in 4.0 mi WNW 17.3 mph 27.6 mph N/A Rain Rain
9:35 AM 53.6 °F - 51.8 °F 94% 29.43 in 9.0 mi West 12.7 mph - N/A Rain Light Rain
9:55 AM 55.4 °F - 50.0 °F 82% 29.42 in 10.0 mi West 15.0 mph - 0.02 in Rain Light Rain
10:15 AM 55.4 °F - 48.2 °F 77% 29.43 in 10.0 mi WNW 18.4 mph 24.2 mph N/A   Scattered Clouds
10:35 AM 55.4 °F - 48.2 °F 77% 29.44 in 10.0 mi West 17.3 mph 24.2 mph N/A   Mostly Cloudy
10:55 AM 55.4 °F - 48.2 °F 77% 29.44 in 10.0 mi WNW 16.1 mph - N/A   Mostly Cloudy
11:15 AM 55.4 °F - 46.4 °F 72% 29.44 in 10.0 mi West 18.4 mph 25.3 mph N/A   Mostly Cloudy
11:35 AM 57.2 °F - 42.8 °F 59% 29.44 in 10.0 mi WNW 24.2 mph - N/A   Clear
11:55 AM 57.2 °F - 41.0 °F 55% 29.44 in 10.0 mi WNW 25.3 mph - N/A   Clear
12:15 PM 57.2 °F - 39.2 °F 51% 29.44 in 10.0 mi WNW 26.5 mph - N/A   Clear
12:35 PM 57.2 °F - 37.4 °F 48% 29.44 in 10.0 mi WNW 23.0 mph 33.4 mph N/A   Clear
12:55 PM 59.0 °F - 37.4 °F 45% 29.43 in 10.0 mi WNW 21.9 mph 31.1 mph N/A   Clear
1:15 PM 59.0 °F - 35.6 °F 42% 29.42 in 10.0 mi WNW 25.3 mph 34.5 mph N/A   Clear
1:35 PM 59.0 °F - 35.6 °F 42% 29.42 in 10.0 mi WNW 24.2 mph 33.4 mph N/A   Clear
1:55 PM 60.8 °F - 37.4 °F 42% 29.42 in 10.0 mi WNW 27.6 mph 35.7 mph N/A   Scattered Clouds
2:15 PM 60.8 °F - 35.6 °F 39% 29.42 in 10.0 mi West 27.6 mph 34.5 mph N/A   Mostly Cloudy
2:35 PM 59.0 °F - 35.6 °F 42% 29.42 in 10.0 mi WNW 31.1 mph 39.1 mph N/A   Overcast
2:55 PM 57.2 °F - 37.4 °F 48% 29.41 in 10.0 mi WNW 25.3 mph 35.7 mph N/A   Overcast
3:15 PM 57.2 °F - 37.4 °F 48% 29.42 in 10.0 mi WNW 21.9 mph 33.4 mph N/A   Overcast
3:35 PM 57.2 °F - 35.6 °F 44% 29.42 in 10.0 mi WNW 26.5 mph 35.7 mph N/A   Mostly Cloudy
3:55 PM 55.4 °F - 35.6 °F 47% 29.43 in 10.0 mi WNW 28.8 mph 38.0 mph N/A   Mostly Cloudy
4:15 PM 55.4 °F - 35.6 °F 47% 29.43 in 10.0 mi WNW 34.5 mph 46.0 mph N/A   Overcast
4:35 PM 53.6 °F - 35.6 °F 51% 29.44 in 10.0 mi NW 35.7 mph 44.9 mph N/A   Mostly Cloudy
4:55 PM 53.6 °F - 37.4 °F 54% 29.45 in 10.0 mi WNW 25.3 mph 35.7 mph N/A   Mostly Cloudy
5:15 PM 53.6 °F - 35.6 °F 51% 29.46 in 10.0 mi WNW 28.8 mph 38.0 mph N/A   Mostly Cloudy
5:35 PM 53.6 °F - 33.8 °F 47% 29.47 in 10.0 mi WNW 24.2 mph 40.3 mph N/A   Overcast
5:55 PM 53.6 °F - 33.8 °F 47% 29.48 in 10.0 mi NW 26.5 mph 40.3 mph N/A   Overcast
6:15 PM 51.8 °F - 33.8 °F 50% 29.50 in 10.0 mi WNW 27.6 mph 41.4 mph N/A   Overcast
6:35 PM 51.8 °F - 33.8 °F 50% 29.50 in 10.0 mi NW 24.2 mph 34.5 mph N/A   Overcast
6:55 PM 51.8 °F - 35.6 °F 54% 29.51 in 10.0 mi NW 17.3 mph 27.6 mph N/A   Overcast
7:15 PM 50.0 °F - 33.8 °F 54% 29.51 in 10.0 mi WNW 16.1 mph 21.9 mph N/A   Overcast
7:35 PM 50.0 °F - 33.8 °F 54% 29.51 in 10.0 mi WNW 11.5 mph - N/A   Overcast
7:55 PM 51.8 °F - 33.8 °F 50% 29.52 in 10.0 mi NW 16.1 mph 23.0 mph N/A   Overcast
8:15 PM 51.8 °F - 32.0 °F 47% 29.52 in 10.0 mi WNW 17.3 mph 24.2 mph N/A   Overcast
8:35 PM 51.8 °F - 32.0 °F 47% 29.51 in 10.0 mi WNW 13.8 mph 19.6 mph N/A   Overcast
8:55 PM 51.8 °F - 32.0 °F 47% 29.51 in 10.0 mi WNW 13.8 mph - N/A   Overcast
9:15 PM 51.8 °F - 32.0 °F 47% 29.51 in 10.0 mi NW 17.3 mph 24.2 mph N/A   Overcast
9:35 PM 50.0 °F - 32.0 °F 50% 29.51 in 10.0 mi NW 19.6 mph - N/A   Overcast
9:55 PM 50.0 °F - 32.0 °F 50% 29.51 in 10.0 mi NW 15.0 mph 21.9 mph N/A   Overcast
10:15 PM 50.0 °F - 32.0 °F 50% 29.50 in 10.0 mi WNW 15.0 mph 21.9 mph N/A   Overcast
10:35 PM 48.2 °F - 32.0 °F 54% 29.50 in 10.0 mi West 11.5 mph - N/A   Overcast
10:55 PM 48.2 °F - 32.0 °F 54% 29.49 in 10.0 mi West 11.5 mph - N/A   Overcast
11:15 PM 48.2 °F - 33.8 °F 58% 29.48 in 10.0 mi West 11.5 mph - N/A   Overcast
11:35 PM 46.4 °F 41.1 °F 33.8 °F 62% 29.48 in 10.0 mi West 11.5 mph - N/A   Overcast
11:55 PM 46.4 °F 41.1 °F 33.8 °F 62% 29.46 in 10.0 mi West 11.5 mph - N/A   Overcast